Tracking 19817 objects as of 19-Aug-2019
HD Live streaming from Space Station
objects crossing your sky now

METEOR 2-17 DEB

Track METEOR 2-17 DEB now!
10-day predictions


NORAD ID: 28991
Int'l Code: 1988-005F
Perigee: 913.1 km
Apogee: 914.6 km
Inclination: 82.5 °
Period: 103.1 minutes
Semi major axis: 7284 km
RCS: 0.0099 m2 (small)
Launch date: January 30, 1988
Source: Commonwealth of Independent States (former USSR) (CIS)
Launch site: PLESETSK MISSILE AND SPACE COMPLEX (PKMTR)

Note: This is SATELLITE DEBRIS
aabbcc
Your satellite tracking list
Your tracking list is empty




NASA's NSSDC Master Catalog

Two Line Element Set (TLE):
1 28991U 88005F   19226.43470233  .00000466  00000-0  32743-3 0  9994
2 28991  82.5330 107.7306 0001071 160.2516 323.6718 13.96274669717284
Source of the keplerian elements: AFSPC